Date String (YYYY-MM-DD hh:mm:ss) UTC,Instrument flags,Ambient pressure (hPa),Sample flow (lpm),Bypass flow (lpm),Sample temperature (°C),Ambient temperature (°C),ASC tube jacket temperature (°C),LED temperature (°C),Box temperature (°C),Sample RH (%),Span deviation,Mass concentration (μg/m³),Mass concentration (μg/m³),Mass concentration (μg/m³)
DateTimeUTC,F1_M11,P_M11,Q1_M11,Q2_M11,T1_M11,T2_M11,T3_M11,T4_M11,T5_M11,U1_M11,ZSPAN_M11,X0_M11,X2_M11,X1_M11
2022-06-12 15:00:00,,0823.2,5.01,0.00,29.4,28.2,00.0,38.2,31.3,28.6,0000.0,0013.04,0004.33,0003.12
2022-06-12 15:01:00,,0823.2,5.00,0.00,29.4,27.6,00.0,38.1,31.1,30.5,0000.0,0012.47,0004.36,0003.14
2022-06-12 15:02:00,,0823.1,4.99,0.00,29.3,27.3,00.0,38.1,31.0,30.4,0000.0,0011.69,0004.35,0003.15
2022-06-12 15:03:00,,0823.1,5.01,0.00,29.2,27.2,00.0,38.1,31.0,30.0,0000.0,0011.58,0004.38,0003.16
2022-06-12 15:04:00,,0823.1,4.99,0.00,29.2,27.3,00.0,38.1,31.0,30.7,0000.0,0011.65,0004.36,0003.15
2022-06-12 15:05:00,,0823.1,5.00,0.00,29.2,27.4,00.0,38.1,31.0,31.3,0000.0,0011.65,0004.34,0003.14
2022-06-12 15:06:00,,0823.1,5.00,0.00,29.2,27.5,00.0,38.1,31.0,30.8,0000.0,0011.33,0004.35,0003.15
2022-06-12 15:07:00,,0823.1,5.00,0.00,29.2,27.7,00.0,38.1,31.1,31.5,0000.0,0011.03,0004.37,0003.16
2022-06-12 15:08:00,,0823.1,5.00,0.00,29.2,27.8,00.0,38.1,31.1,31.1,0000.0,0010.96,0004.39,0003.18
2022-06-12 15:09:00,,0823.1,5.01,0.00,29.2,28.0,00.0,38.1,31.1,30.7,0000.0,0011.55,0004.35,0003.19
2022-06-12 15:10:00,,0823.1,4.99,0.00,29.2,28.1,00.0,38.1,31.2,29.6,0000.0,0012.28,0004.39,0003.21
2022-06-12 15:11:00,,0823.1,5.00,0.00,29.3,28.2,00.0,38.1,31.2,30.2,0000.0,0012.45,0004.46,0003.22
2022-06-12 15:12:00,,0823.1,5.00,0.00,29.3,28.3,00.0,38.1,31.3,29.8,0000.0,0012.47,0004.48,0003.22
2022-06-12 15:13:00,,0823.1,5.00,0.00,29.3,28.4,00.0,38.1,31.3,28.7,0000.0,0012.83,0004.56,0003.22
2022-06-12 15:14:00,,0823.0,5.00,0.00,29.3,28.4,00.0,38.2,31.3,29.2,0000.0,0013.30,0004.60,0003.22
2022-06-12 15:15:00,,0823.1,5.01,0.00,29.4,28.4,00.0,38.2,31.3,29.8,0000.0,0013.41,0004.65,0003.22
2022-06-12 15:16:00,,0823.0,5.00,0.00,29.3,27.9,00.0,38.1,31.2,29.8,0000.0,0014.01,0004.70,0003.25
2022-06-12 15:17:00,,0823.0,4.99,0.00,29.3,27.3,00.0,38.0,31.0,29.7,0000.0,0014.36,0004.71,0003.26
2022-06-12 15:18:00,,0823.0,5.00,0.00,29.2,27.2,00.0,38.0,31.0,30.0,0000.0,0014.45,0004.71,0003.28
2022-06-12 15:19:00,,0823.0,5.01,0.00,29.2,27.2,00.0,38.0,30.9,30.4,0000.0,0014.41,0004.68,0003.28
2022-06-12 15:20:00,,0822.9,4.99,0.00,29.1,27.3,00.0,38.0,30.9,30.9,0000.0,0014.08,0004.71,0003.28
2022-06-12 15:21:00,,0823.0,5.00,0.00,29.1,27.4,00.0,38.0,31.0,31.3,0000.0,0012.18,0004.72,0003.28
2022-06-12 15:22:00,,0823.0,5.00,0.00,29.1,27.6,00.0,38.0,31.0,31.4,0000.0,0012.11,0004.66,0003.28
2022-06-12 15:23:00,,0823.0,5.00,0.00,29.1,27.7,00.0,38.0,31.0,30.5,0000.0,0012.58,0004.62,0003.27
2022-06-12 15:24:00,,0823.0,5.01,0.00,29.2,27.9,00.0,38.0,31.1,31.0,0000.0,0012.35,0004.54,0003.27
2022-06-12 15:25:00,,0823.0,4.99,0.00,29.2,28.0,00.0,38.0,31.1,28.4,0000.0,0012.42,0004.53,0003.27
2022-06-12 15:26:00,,0823.0,5.00,0.00,29.2,28.1,00.0,38.0,31.2,29.8,0000.0,0012.34,0004.49,0003.26
2022-06-12 15:27:00,,0823.1,4.99,0.00,29.2,28.2,00.0,38.1,31.2,30.0,0000.0,0011.74,0004.45,0003.24
2022-06-12 15:28:00,,0823.0,5.00,0.00,29.3,28.3,00.0,38.1,31.2,30.3,0000.0,0011.29,0004.40,0003.23
2022-06-12 15:29:00,,0823.0,5.00,0.00,29.3,27.9,00.0,38.0,31.2,30.4,0000.0,0011.75,0004.39,0003.22
2022-06-12 15:30:00,,0822.9,5.00,0.00,29.2,27.3,00.0,38.0,31.0,29.6,0000.0,0012.73,0004.41,0003.22
2022-06-12 15:31:00,,0822.9,5.00,0.00,29.2,27.1,00.0,37.9,30.9,29.9,0000.0,0012.67,0004.36,0003.22
2022-06-12 15:32:00,,0823.0,5.00,0.00,29.1,27.1,00.0,37.9,30.8,30.0,0000.0,0012.60,0004.35,0003.22
2022-06-12 15:33:00,,0822.9,5.01,0.00,29.0,27.2,00.0,37.9,30.8,30.5,0000.0,0012.99,0004.34,0003.22
2022-06-12 15:34:00,,0822.9,4.99,0.00,29.0,27.3,00.0,37.9,30.9,30.4,0000.0,0013.10,0004.35,0003.22
2022-06-12 15:35:00,,0822.9,4.98,0.00,29.0,27.5,00.0,37.9,30.9,30.3,0000.0,0013.10,0004.37,0003.22
2022-06-12 15:36:00,,0822.9,5.01,0.00,29.1,27.6,00.0,37.9,31.0,30.4,0000.0,0012.77,0004.31,0003.22
2022-06-12 15:37:00,,0823.0,5.01,0.00,29.1,27.8,00.0,37.9,31.0,31.6,0000.0,0012.85,0004.28,0003.23
2022-06-12 15:38:00,,0823.0,4.99,0.00,29.1,27.9,00.0,38.0,31.1,32.5,0000.0,0012.98,0004.29,0003.24
2022-06-12 15:39:00,,0822.9,4.99,0.00,29.1,28.0,00.0,38.0,31.1,31.6,0000.0,0014.13,0004.34,0003.24
2022-06-12 15:40:00,,0822.9,4.99,0.00,29.2,28.1,00.0,38.0,31.1,31.4,0000.0,0013.74,0004.37,0003.25
2022-06-12 15:41:00,,0822.9,5.00,0.00,29.2,28.3,00.0,38.0,31.2,31.2,0000.0,0012.89,0004.33,0003.25
2022-06-12 15:42:00,,0822.9,4.99,0.00,29.2,28.3,00.0,38.0,31.2,31.3,0000.0,0013.21,0004.38,0003.26
2022-06-12 15:43:00,,0823.0,5.01,0.00,29.2,27.9,00.0,38.0,31.1,30.9,0000.0,0013.62,0004.40,0003.27
2022-06-12 15:44:00,,0822.9,4.99,0.00,29.2,27.2,00.0,37.9,30.9,31.0,0000.0,0013.08,0004.41,0003.29
2022-06-12 15:45:00,,0822.9,5.00,0.00,29.1,27.1,00.0,37.9,30.9,30.9,0000.0,0012.33,0004.40,0003.29
2022-06-12 15:46:00,,0822.9,5.01,0.00,29.0,27.1,00.0,37.9,30.8,31.0,0000.0,0012.03,0004.38,0003.29
2022-06-12 15:47:00,,0822.9,4.99,0.00,29.0,27.2,00.0,37.9,30.8,30.9,0000.0,0011.79,0004.35,0003.30
2022-06-12 15:48:00,,0822.8,4.99,0.00,29.0,27.4,00.0,37.9,30.9,30.8,0000.0,0012.02,0004.36,0003.31
2022-06-12 15:49:00,,0822.8,5.01,0.00,29.0,27.5,00.0,37.9,30.9,31.0,0000.0,0012.47,0004.39,0003.31
2022-06-12 15:50:00,,0822.8,5.00,0.00,29.0,27.7,00.0,37.9,30.9,31.3,0000.0,0011.64,0004.37,0003.30
2022-06-12 15:51:00,,0822.8,5.01,0.00,29.1,27.8,00.0,37.9,31.0,31.8,0000.0,0012.46,0004.37,0003.30
2022-06-12 15:52:00,,0822.8,5.00,0.00,29.1,27.9,00.0,37.9,31.1,32.0,0000.0,0012.60,0004.38,0003.30
2022-06-12 15:53:00,,0822.8,4.99,0.00,29.1,28.1,00.0,37.9,31.1,31.9,0000.0,0012.26,0004.34,0003.30
2022-06-12 15:54:00,,0822.8,5.00,0.00,29.2,28.2,00.0,38.0,31.1,32.1,0000.0,0012.05,0004.31,0003.29
2022-06-12 15:55:00,,0822.7,5.00,0.00,29.2,28.2,00.0,37.9,31.1,32.0,0000.0,0012.25,0004.32,0003.29
2022-06-12 15:56:00,,0822.8,5.01,0.00,29.2,27.6,00.0,37.9,31.0,32.4,0000.0,0012.47,0004.34,0003.29
2022-06-12 15:57:00,,0822.7,5.00,0.00,29.1,27.1,00.0,37.8,30.9,32.1,0000.0,0013.22,0004.35,0003.30
2022-06-12 15:58:00,,0822.8,5.00,0.00,29.0,27.0,00.0,37.8,30.8,32.0,0000.0,0013.86,0004.36,0003.29
2022-06-12 15:59:00,,0822.7,5.01,0.00,29.0,27.1,00.0,37.8,30.7,31.4,0000.0,0013.44,0004.37,0003.29
